Regional Weather Roundup
Issued by NWS Jackson, KY

Home | Current Version | Previous Version | Graphics & Text | Print | Product List | Glossary On
Versions: 1 2 3 4 5 6 7 8 9 10 11 12 13 14 15 16 17 18 19 20 21 22 23 24 25 26 27 28 29 30 31 32 33 34 35 36 37 38 39 40 41 42 43 44 45 46 47 48 49 50
000
ASUS43 KJKL 212111
RWRJKL

EAST KENTUCKY HOURLY WEATHER ROUNDUP
NATIONAL WEATHER SERVICE JACKSON KY
500 PM EDT THU AUG 21 2014

NOTE: "FAIR" INDICATES FEW OR NO CLOUDS BELOW 12,000 FEET WITH
NO SIGNIFICANT WEATHER AND/OR OBSTRUCTIONS TO VISIBILITY.

* THESE REPORTS ARE NOT UNDER NWS QUALITY CONTROL AND MAY NOT
  REPORT WEATHER SUCH AS PRECIPITATION AND FOG.

KYZ079-080-083-085-087-088-110-112-115-119-120-212200
...EASTERN KENTUCKY...

CITY           SKY/WX    TMP DP  RH WIND       PRES   REMARKS
JACKSON        LGT RAIN  70  68  93 CALM      30.13S VSB 3/4
LONDON         MOSUNNY   87  70  56 W10       30.10F HX  92
SOMERSET*      PTSUNNY   86  70  58 W8        30.10S HX  90
MONTICELLO*    SUNNY     89  73  59 SW8       30.11F HX  96
MIDDLESBORO*   MOSUNNY   87  74  65 S7        30.10F HX  95
HARLAN APT*    MOCLDY    84  70  61 MISG      30.11F
HAZARD APT*    HVY RAIN  72  72 100 N8G23     30.13
BLACK MTN*       N/A     72  68  88 S5          N/A
PIKEVILLE APT* TSTM      70  68  94 NW15G40   30.15R
BIG SANDY*     RAIN      72  71  96 NW3       30.12R
MOREHEAD APT*  MOCLDY    79  75  89 S5        30.09F
$$

KYZ035-036-041-042-044-050-067-078-099-212200
...CENTRAL KENTUCKY...

CITY           SKY/WX    TMP DP  RH WIND       PRES   REMARKS
MT STERLING*   PTSUNNY   77  73  88 SE3       30.08F
FLEMING/MASON* MOSUNNY   81  73  78 SW6       30.06F
DANVILLE*      PTSUNNY   88  73  62 SW7       30.08F HX  96
RICHMOND*      PTSUNNY   86  73  66 SW8       30.08S HX  93
LEXINGTON      PTSUNNY   86  74  67 SW5       30.06F HX  94
FRANKFORT      MOSUNNY   85  74  69 W6        30.04F HX  92
$$

KYZ091>093-OHZ055-061-077-WVZ005-015-034-035-042-212200
...SOUTHERN OHIO/WEST VIRGINIA...

CITY           SKY/WX    TMP DP  RH WIND       PRES   REMARKS
COVINGTON      PTSUNNY   81  73  76 S6        30.03F
COLUMBUS       LGT RAIN  74  69  85 SW12G18   30.01F
DAYTON         PTSUNNY   78  71  79 S12       30.04S
WILMINGTON     PTSUNNY   77  69  76 S6        30.05F
HUNTINGTON     CLOUDY    75  71  87 CALM      30.06F
CHARLESTON     TSTM      71  70  96 SE6       30.08F FOG
PINEVILLE*     CLOUDY    82  76  83 MISG      30.16S
BECKLEY        CLOUDY    75  69  81 NW7       30.16F
BLUEFIELD      PTSUNNY   77  65  66 SW20G32   30.20S THUNDER
$$

VAZ002-007-008-TNZ017-027-036-066-071-212200
...SOUTHWEST VIRGINIA/EAST TENNESSEE...

CITY           SKY/WX    TMP DP  RH WIND       PRES   REMARKS
WISE*          PTSUNNY   77  66  69 SW7       30.20R
JONESVILLE*      N/A     86  72  62 SW9       30.13F HX  92
ABINGDON*      PTSUNNY   82  71  69 W5        30.16F
BRISTOL        MOSUNNY   85  70  60 W7        30.12F
KNOXVILLE      MOSUNNY   87  71  58 SW7       30.09F HX  93
OAK RIDGE      MOSUNNY   89  72  56 VRB3      30.11F HX  96
CROSSVILLE     SUNNY     85  67  54 W7        30.16F
NASHVILLE      PTSUNNY   92  69  47 SW9       30.06F HX  97
$$

...KEY TO REMARKS...
VSB - VISIBILITY IN MILES
WCI - WIND CHILL INDEX
HX  - HEAT INDEX

$$



USA.gov is the U.S. government's official web portal to all federal, state and local government web resources and services.